Location: Cactus School
(34.5700°N, 118.0931°W)
Time: 12:21:42
(UTC-08:00)

Vanguard 2 - All Passes

Search period start: 18 February 2018 00:00
Search period end: 28 February 2018 00:00
Orbit: 553 x 2939 km, 32.9° (Epoch: 18 February)

Date Brightness Start Highest point End Pass type
(mag) Time Alt. Az. Time Alt. Az. Time Alt. Az.
18 Feb - 14:06:41 10° S 14:13:57 15° SSE 14:19:56 10° ESE daylight
18 Feb - 16:13:12 10° SW 16:24:31 37° SSE 16:31:48 10° E daylight
18 Feb - 18:24:25 10° WSW 18:34:08 66° S 18:39:54 10° E visible
18 Feb - 20:36:11 10° W 20:42:54 74° S 20:47:20 10° ESE visible
18 Feb - 22:46:45 10° W 22:50:47 29° SSW 22:54:15 10° SE night (unlit)
19 Feb - 14:21:58 10° SSW 14:32:13 22° SSE 14:39:58 10° ESE daylight
19 Feb - 16:30:42 10° SW 16:42:43 47° SSE 16:50:05 10° E daylight
19 Feb - 18:42:41 10° WSW 18:52:16 74° S 18:57:56 10° E visible
19 Feb - 20:54:29 10° W 21:00:57 65° SSW 21:05:18 10° ESE visible
19 Feb - 23:05:20 10° WSW 23:08:36 19° SSW 23:11:32 10° SSE night (unlit)
20 Feb - 14:38:17 10° SSW 14:50:27 30° SSE 14:59:05 10° E daylight
20 Feb - 16:48:31 10° WSW 17:00:53 57° SSE 17:08:16 10° E daylight
20 Feb - 19:01:01 10° W 19:10:24 78° S 19:15:57 10° E visible
20 Feb - 21:12:47 10° W 21:18:56 53° SSW 21:23:11 10° ESE visible
20 Feb - 23:24:39 10° WSW 23:26:22 12° SW 23:27:59 10° S night (unlit)
21 Feb - 12:49:40 10° S 12:57:36 15° SE 13:04:26 10° ESE daylight
21 Feb - 14:55:12 10° SW 15:08:40 38° SSE 15:17:43 10° E daylight
21 Feb - 17:06:35 10° WSW 17:19:04 66° SSE 17:26:22 10° E daylight
21 Feb - 19:19:24 10° W 19:28:31 79° S 19:33:58 10° E visible
21 Feb - 21:31:08 10° W 21:36:51 40° SSW 21:40:54 10° SE visible
22 Feb - 13:04:32 10° S 13:15:48 22° SE 13:24:54 10° ESE daylight
22 Feb - 15:12:34 10° SW 15:26:53 47° SSE 15:36:06 10° E daylight
22 Feb - 17:24:50 10° WSW 17:37:14 74° S 17:44:25 10° E daylight
22 Feb - 19:37:47 10° W 19:46:37 74° S 19:51:57 10° ESE visible
22 Feb - 21:49:36 10° W 21:54:39 29° SSW 21:58:26 10° SSE visible
23 Feb - 13:20:35 10° SSW 13:33:58 29° SSE 13:44:15 10° E daylight
23 Feb - 15:30:15 10° SW 15:45:04 56° SSE 15:54:21 10° E daylight
23 Feb - 17:43:12 10° W 17:55:25 79° S 18:02:28 10° E daylight
23 Feb - 19:56:09 10° W 20:04:40 65° SSW 20:09:52 10° ESE visible
23 Feb - 22:08:21 10° W 22:12:21 19° SW 22:15:33 10° SSE visible
24 Feb - 11:33:40 10° SSE 11:40:51 14° SE 11:47:29 10° ESE daylight
24 Feb - 13:37:18 10° SSW 13:52:09 37° SSE 14:03:03 10° E daylight
24 Feb - 15:48:14 10° WSW 16:03:16 65° SSE 16:12:29 10° E daylight
24 Feb - 18:01:39 10° W 18:13:36 81° S 18:20:29 10° E visible
24 Feb - 20:14:33 10° W 20:22:39 54° SSW 20:27:41 10° SE visible
24 Feb - 22:27:55 10° WSW 22:29:57 12° SW 22:31:47 10° SSW visible
25 Feb - 11:47:47 10° S 11:58:56 20° SE 12:08:48 10° ESE daylight
25 Feb - 13:54:29 10° SW 14:10:18 46° SSE 14:21:34 10° E daylight
25 Feb - 16:06:25 10° WSW 16:21:29 73° SSE 16:30:35 10° E daylight
25 Feb - 18:20:06 10° W 18:31:47 80° S 18:38:30 10° E visible
25 Feb - 20:32:59 10° W 20:40:31 41° SSW 20:45:22 10° SE visible
26 Feb - 12:03:28 10° SSW 12:16:59 28° SE 12:28:33 10° E daylight
26 Feb - 14:12:00 10° SW 14:28:29 55° SSE 14:39:54 10° E daylight
26 Feb - 16:24:45 10° WSW 16:39:44 79° S 16:48:40 10° E daylight
26 Feb - 18:38:34 10° W 18:49:55 74° SSW 18:56:29 10° ESE visible
26 Feb - 20:51:34 10° W 20:58:14 30° SW 21:02:48 10° SSE visible
27 Feb - 10:20:03 10° SSE 10:23:56 11° SE 10:27:45 10° ESE daylight
27 Feb - 12:19:55 10° SSW 12:35:03 35° SSE 12:47:37 10° E daylight
27 Feb - 14:29:50 10° WSW 14:46:42 64° SSE 14:58:07 10° E daylight
27 Feb - 16:43:12 10° W 16:57:59 82° S 17:06:44 10° E daylight
27 Feb - 18:57:01 10° W 19:07:59 66° SSW 19:14:23 10° ESE visible
27 Feb - 21:10:25 10° W 21:15:50 21° SW 21:19:51 10° S visible
